Charlotte, NC

2:23 PM EST on February 23, 2018 (GMT -0500)
Charlotte-Douglas International

Weather History for KCLT - October, 2002

Change the Weather History Date:

Saturday, October 19, 2002

  Actual Average Record
Temperature  
Mean Temperature 56 °F 59 °F  
Max Temperature 69 °F 71 °F 89 °F (2016)
Min Temperature 44 °F 48 °F 30 °F (2009)
Degree Days  
Heating Degree Days 8 7  
Month to date heating degree days 85  
Since 1 July heating degree days 108  
Cooling Degree Days 0 1  
Month to date cooling degree days 32  
Year to date cooling degree days 1507  
Growing Degree Days 6 (Base 50)    
Moisture  
Dew Point 47 °F    
Average Humidity 75    
Maximum Humidity 96    
Minimum Humidity 47    
Precipitation  
Precipitation 0.00 in 0.10 in 1.20 in (1997)
Month to date precipitation 2.19  
Year to date precipitation 34.03  
Snow  
Snow 0.00 in 0.00 in 0.00 in ()
Month to date snowfall 0.0  
Since 1 July snowfall 0.0  
Since 1 September snowfall 0.0  
Snow Depth -    
Sea Level Pressure  
Sea Level Pressure 30.13 in    
Wind  
Wind Speed 3 mph (SSW)    
Max Wind Speed 12 mph    
Max Gust Speed -    
Visibility 10 miles    
Events      
T = Trace of Precipitation, MM = Missing Value Source: NWS Daily Summary

Daily Weather History Graph

Daily Weather History Graph

Search for Another Location

Airport or City:

Trip Planner

Search our weather history database for the weather conditions in past years. The results will help you decide how hot, cold, wet, or windy it might be!

Date:

Astronomy

Oct. 19, 2002 Rise Set
Actual Time 7:33 AM EDT 6:43 PM EDT
Civil Twilight 7:07 AM EDT 7:09 PM EDT
Nautical Twilight 6:37 AM EDT 7:38 PM EDT
Astronomical Twilight 6:08 AM EDT 8:08 PM EDT
Moon 6:19 PM EDT (10/19) 5:53 AM EDT (10/19)
Length of Visible Light 12h 01m
Length of Day
11h 10m
Waxing Gibbous, 98% of the Moon is Illuminated
Oct 19
Waxing Gibbous
Oct 21
Full
Oct 29
Last Quarter
Nov 4
New
Nov 11
First Quarter

Hourly Weather History & Observations

Time (EDT) Temp. Windchill Dew Point Humidity Pressure Visibility Wind Dir Wind Speed Gust Speed Precip Events Conditions
12:51 AM 48.0 °F - 45.0 °F 89% 30.20 in 10.0 mi Calm Calm - N/A   Clear
1:51 AM 48.0 °F - 44.1 °F 86% 30.20 in 10.0 mi Calm Calm - N/A   Clear
2:51 AM 46.0 °F - 44.1 °F 93% 30.20 in 9.0 mi Calm Calm - N/A   Clear
3:51 AM 46.0 °F 44.8 °F 43.0 °F 89% 30.17 in 9.0 mi South 3.5 mph - N/A   Clear
4:51 AM 46.0 °F - 43.0 °F 89% 30.17 in 9.0 mi Calm Calm - N/A   Partly Cloudy
5:51 AM 44.1 °F - 43.0 °F 96% 30.19 in 8.0 mi Calm Calm - N/A   Partly Cloudy
6:51 AM 46.0 °F 43.9 °F 44.1 °F 93% 30.19 in 8.0 mi SW 4.6 mph - N/A   Partly Cloudy
7:51 AM 46.9 °F - 45.0 °F 93% 30.19 in 8.0 mi Calm Calm - N/A   Scattered Clouds
8:51 AM 51.1 °F - 46.9 °F 86% 30.19 in 9.0 mi Calm Calm - N/A   Scattered Clouds
9:51 AM 55.9 °F - 48.0 °F 75% 30.18 in 10.0 mi South 3.5 mph - N/A   Mostly Cloudy
10:51 AM 60.1 °F - 48.0 °F 64% 30.17 in 10.0 mi Variable 6.9 mph - N/A   Mostly Cloudy
11:51 AM 64.0 °F - 46.9 °F 54% 30.16 in 10.0 mi South 9.2 mph - N/A   Mostly Cloudy
12:51 PM 64.9 °F - 46.9 °F 52% 30.14 in 10.0 mi SSW 8.1 mph - N/A   Mostly Cloudy
1:51 PM 66.0 °F - 48.0 °F 52% 30.10 in 10.0 mi South 6.9 mph - N/A   Overcast
2:51 PM 68.0 °F - 48.0 °F 49% 30.08 in 10.0 mi SSW 8.1 mph - N/A   Mostly Cloudy
3:51 PM 69.1 °F - 48.0 °F 47% 30.06 in 10.0 mi SSW 10.4 mph - N/A   Mostly Cloudy
4:51 PM 66.9 °F - 48.9 °F 52% 30.06 in 10.0 mi South 11.5 mph - N/A   Overcast
5:51 PM 64.0 °F - 51.1 °F 63% 30.06 in 10.0 mi SSW 3.5 mph - N/A   Overcast
6:51 PM 60.1 °F - 51.1 °F 72% 30.07 in 10.0 mi South 3.5 mph - N/A   Overcast
7:51 PM 55.0 °F - 51.1 °F 86% 30.07 in 10.0 mi South 3.5 mph - N/A   Overcast
8:51 PM 55.9 °F - 50.0 °F 80% 30.08 in 10.0 mi South 3.5 mph - N/A   Overcast
9:51 PM 57.9 °F - 51.1 °F 78% 30.07 in 10.0 mi Calm Calm - N/A   Overcast
10:51 PM 57.9 °F - 50.0 °F 75% 30.06 in 10.0 mi Calm Calm - N/A   Overcast
11:51 PM 54.0 °F - 51.1 °F 90% 30.05 in 10.0 mi Calm Calm - N/A   Overcast